Preview of NWS' New Version of Forecast
This preview is not operational and should not be used for support decisions.

Regional Weather Roundup (RWR)

Issued by National Weather Service (NWS)

                            
000
ASPQ40 PGUM 190210
RWRPQ 
WEATHER ROUNDUP FOR THE MARIANAS AND MICRONESIA
NATIONAL WEATHER SERVICE TIYAN GU
1200 PM CHST WED JUN 19 2019

GUZ001>004-190300-
MARIANA ISLANDS-
  
CITY           SKY/WX    TMP DP  RH WIND       PRES   REMARKS
GUAM AIRPORT   MOSUNNY   88  73  62 E12       29.85F HX  96           
ANDERSEN AFB   MOSUNNY   86  75  70 SE10      29.86F HX  95           
ROTA AIRPORT   MOSUNNY   86  73  66 E18       29.84F HX  93           
TINIAN AP      MOSUNNY   88  75  66 E12       29.83F HX  97           
SAIPAN AP      MOSUNNY   88  75  66 SE15      29.85F HX  97           

$$

PMZ161-190300-
REPUBLIC OF PALAU-
  
CITY           SKY/WX    TMP DP  RH WIND       PRES   REMARKS
KOROR AP       PTSUNNY   88  75  66 NE10      29.79S HX  97           
KOROR WSO      NOT AVBL                                               

$$

PMZ171>174-190300-
FEDERATED STATES OF MICRONESIA-
  
CITY           SKY/WX    TMP DP  RH WIND       PRES   REMARKS
YAP AIRPORT    MOSUNNY   90  79  70 E12       29.79F HX 105           
CHUUK AP       CLOUDY    82  79  89 VRB3      29.81F HX  93           
POHNPEI AP     CLOUDY    82  77  83 E6        29.81F HX  91           
POHNPEI WSO    CLOUDY    81  75  83 E6        29.83F                  
KOSRAE AP      NOT AVBL                                               

$$

PMZ181-190300-
REPUBLIC OF THE MARSHALL ISLANDS-
  
CITY           SKY/WX    TMP DP  RH WIND       PRES   REMARKS
KWAJALEIN AP   MOSUNNY   88  77  70 E13       29.79F HX 100           
MAJURO AP      PTSUNNY   86  77  74 NE15      29.76  HX  97           
MAJURO WSO     CLOUDY    86  79  79 E14       29.75F HX  99           

$$